COSMOS 980

Satellite information

Favourite Embed

Satellite Type and Status

PAYLOADIN ORBIT

Key statistics

Satellite COSMOS 980 at a glance.

Uptime

17458

Days in orbit

Revolutions

≈ 12.5

Per day

Orbit

LEO

Low Earth Orbit

Inclination

74.0

Latest

Satellite identification and parameters

Extended collection of information and parameters for COSMOS 980.

Object identification

Identified? True

Debris? False

Object name: COSMOS 980

International designator: 1978-005E

Object number (NORAD): 10587

Object ID (CCSDS): 10587

Country: COMMONWEALTH OF INDEPENDENT STATES (CIS)

Current information (Y/N): Y

RCS size: MEDIUM

Orbital parameters

Period: 115.297 minutes

Inclination: 74.0315 deg

SMA: 7847.051 km

Apoapsis: 1474.867 km

Periapsis: 1462.966 km

RAAN: 327.4072 deg

Eccentricy: 0.00075831

Argument of periapsis: 27.0483 deg

Mean anomaly: 146.2396 deg

Mean motion: 12.48944134 rev/day

Mean motion (dot): -0.00000011 rev/day2

B* drag term: 0.000030258072 1/REarth

Two-line elements (TLE)

Creation date: Oct. 27, 2025, 2:46 a.m.

Reference frame: TEME

Reference center: EARTH

Epoch: Oct. 26, 2025, 7:38 p.m. UTC

TLE line 0: 0 COSMOS 980

TLE line 1: 1 10587U 78005E 25299.81839855 -.00000011 00000-0 30258-4 0 9990

TLE line 2: 2 10587 74.0315 327.4072 0007583 27.0483 146.2396 12.48944134173614

Live tracking on map

Real-time ground track for satellite COSMOS 980.

In-orbit conjunctions

A list of the most updated potential collisions computed for object COSMOS 980.

Target Orbit TCA Probability of collision Miss distance Type
FENGYUN 1C DEB SSO 2025-04-29 21:01:35 0.0001311221 297.0 (m) DEBRIS
COSMOS 886 DEB LEO 2025-04-07 16:32:05 0.0002159431 446.0 (m) DEBRIS
DELTA 1 R/B SSO 2024-06-30 08:23:02 0.002979162 99.0 (m) ROCKET BODY

Associated space launch

Tselina-D satellites provided detailed observation of radio sources detected by the smaller Tselina-O satellites as part of the Tselina ELINT system.

COSMOS 980 was lifted into orbit during the mission ‘Vostok 8A92M | Tselina-D 14’, on board a Vostok 8A92M space rocket.

The launch took place on Jan. 10, 1978, 1:23 p.m. from 43/4 (43R).

For more information about the launch, click the button.

Launch to space Vostok 8A92M | Tselina-D 14
Vostok 8A92M | Tselina-D 14

Agency: N/A

Status: Launch Successful

Launch date: Jan. 10, 1978, 1:23 p.m. UTC

Rocket: Vostok 8A92M

Launch pad: 43/4 (43R)

Location: Plesetsk Cosmodrome, Russian Federation

...

Latest news about this satellite

There are no fresh news available about this satellite. Check back as we update our databases every day.


Newsletter sign-up

Weekly statistics, charts and insights to help you stay on top of the space industry.